Location: Arthez
(43.0833°N, 0.2500°W)
Time: 01:24:24
(UTC+00:00)

NOSS 3-1 (A) - Pass Details

Date: 05 June 2022
Orbit: 711 x 1501 km, 63.4° (Epoch: 21 May)

Event Time Altitude Azimuth Distance (km) Brightness Sun altitude
Rises 22:47:32 0° 319° (NW) 4,025 7.8 -22.2°
Reaches altitude 10° 22:50:12 10° 313° (NW) 3,167 7.0 -22.4°
Maximum altitude 22:57:33 47° 243° (WSW) 1,745 4.7 -22.8°
Enters shadow 23:01:02 32° 194° (SSW) 2,220 4.9 -22.9°
